Kelpie-1

operational
NORAD ID: 55107 Int'l Des: 2023-001 Owner: CLAAC Country: UK
LEOCIRCULARRETROGRADESSO

About Kelpie-1

Description loading...

Live Position

Loading 3D Globe...

Upcoming Passes

Altitude History

Altitude vs Time

uPlot chart will show altitude changes over time

Two-Line Element Set

1 55107U 23001DC 26061.64460076 .00006085 00000-0 62030-3 0 9995
2 55107 97.9274 137.9182 0008303 268.6504 91.3762 14.91027384162404
Epoch: Mar 2, 2026 • Age: 26 hours

Current Status

Altitude 599.5 km
Velocity 7.56 km/s
Sub-Earth Point 22.13°N, 133.12°E
Launch Date Jan 3, 2023
Age 3.1 years
Type other

Technical Details

Classification Payload
Mass 4.00 kg
Dry Mass 4.00 kg
Total Mass 4.00 kg
Length 0.30 m
Diameter 0.10 m
Span 0.30 m
Shape Box
Manufacturer CLAAC
Bus Type Cubesat 3U
Phase Status In Orbit
Owner/State CLAAC/UK

Large Constellations

Loading constellations...